Temperature
29 26 25 26 27 27 28 27 27 28 29 27 26 25 26 26 26 25 25 25 25 24 24 24 23 23 22 22 21 21 21 20 20 20 20 19 19 19 19 19 19 19 19 19
26 26 27 28 29 29 28 28 27 28 29 27 26 26 26 26 26 26 25 25 25 24 24 24 23 23 23 22 22 21 21 20 20 20 20 20 19 19 19 19 19 19 19 19
26 27 29 30 29 29 29 28 28 27 28 27 26 25 25 26 26 26 26 25 25 25 24 24 24 23 23 23 22 22 21 21 20 20 20 19 19 19 19 19 19 19 19 19
27 28 29 29 29 29 28 29 29 28 26 24 25 23 24 24 24 25 25 25 25 25 25 25 24 24 23 23 23 22 21 21 21 20 20 20 20 19 19 19 19 19 19 19
27 29 29 29 30 30 29 30 29 28 25 24 24 23 23 23 24 24 25 26 26 26 25 25 25 24 24 23 23 22 22 21 21 20 20 20 20 19 19 19 19 19 19 18
27 29 29 30 30 30 30 28 26 23 22 23 24 23 23 22 24 25 25 26 26 26 26 25 25 25 24 24 23 22 22 22 21 21 20 20 20 20 19 19 19 19 19 18
27 28 29 30 29 29 28 24 23 24 22 23 23 23 23 24 25 25 25 26 26 26 26 26 25 25 24 24 23 23 22 22 21 21 21 20 20 20 20 19 19 19 19 19
25 25 28 29 29 28 27 24 23 24 23 22 23 23 24 25 26 27 27 26 26 27 26 26 26 25 25 24 24 23 23 22 22 21 21 21 20 20 20 20 19 19 19 19
24 25 28 29 30 29 28 25 24 22 22 22 23 23 24 25 25 26 26 26 26 26 26 26 26 26 25 25 24 24 23 23 22 22 21 21 20 20 20 20 19 19 19 19
24 25 27 28 30 29 28 26 22 22 22 23 23 23 23 24 25 25 25 25 26 26 26 26 26 26 25 25 25 24 24 23 23 22 22 21 21 20 20 20 19 19 19 19
24 24 25 27 28 28 28 27 23 21 21 22 22 23 25 24 24 24 25 26 26 26 26 26 26 26 25 25 24 24 23 23 23 22 22 21 21 20 20 20 20 19 19 19
24 21 22 25 26 27 27 26 23 23 22 21 21 22 25 25 25 25 26 26 26 26 26 26 26 25 25 25 24 24 24 23 23 22 22 21 21 20 20 20 20 19 19 19
23 21 22 23 24 25 27 26 24 21 20 20 21 23 25 24 25 26 26 26 26 26 26 26 25 25 25 25 24 24 24 23 23 22 22 21 21 20 20 20 19 19 19 19
23 20 21 23 23 24 25 26 26 22 21 21 22 24 24 24 24 24 25 25 25 25 26 25 25 25 25 25 24 24 24 23 23 22 22 21 21 20 20 20 19 19 19 19
21 21 23 23 24 26 26 26 26 25 23 22 23 23 24 24 24 24 25 25 25 25 25 25 25 25 25 25 24 24 23 23 23 22 22 21 21 20 20 20 19 19 19 19
19 21 22 23 25 25 26 26 26 25 25 24 24 24 23 24 24 24 24 24 24 24 24 25 25 25 24 24 24 24 23 23 23 22 22 21 21 20 20 19 19 19 19 18
18 20 20 21 23 24 24 24 25 25 24 24 24 23 23 22 22 23 23 24 24 24 24 24 24 24 24 24 24 24 24 23 22 22 22 21 21 20 20 19 19 19 18 18
18 18 17 19 22 23 22 23 25 24 24 23 23 23 22 22 23 24 24 24 24 24 24 24 24 24 24 24 24 23 23 22 22 22 21 21 20 20 19 19 19 19 18 18
18 18 17 17 20 21 22 24 24 23 22 22 22 22 22 23 23 23 24 25 25 24 24 24 24 24 24 24 23 23 22 22 21 21 21 20 20 20 19 19 19 18 18 18
17 17 17 17 20 20 21 23 25 23 21 22 22 21 22 22 20 21 23 24 24 24 24 24 24 24 23 23 23 23 22 22 21 21 21 20 20 19 19 19 19 18 18 18
18 17 17 17 19 19 20 22 24 22 20 21 22 22 23 21 21 23 23 23 23 23 23 23 23 23 23 23 22 22 22 22 21 21 20 20 20 19 19 19 18 18 18 17
17 16 16 16 18 18 20 21 20 19 21 21 22 23 23 22 23 23 23 23 23 23 22 22 22 22 22 22 22 21 21 21 21 20 20 20 19 19 19 18 18 18 17 17
16 16 16 16 17 18 20 20 21 21 21 21 21 22 22 22 22 22 22 22 22 22 22 21 21 21 21 21 21 21 21 20 20 20 20 19 19 19 18 18 18 17 17 17
17 16 16 16 17 18 20 20 21 21 21 21 21 22 22 21 21 21 21 21 21 21 21 21 21 21 20 20 20 20 20 20 19 19 19 19 18 18 18 17 17 17 17 16
17 16 16 16 17 18 20 20 21 21 21 21 21 21 21 21 21 21 21 20 20 20 20 20 20 20 19 19 19 19 19 19 19 18 18 18 18 18 17 17 17 17 17 17
15 15 15 15 17 16 18 20 20 20 20 20 20 20 20 20 20 20 20 20 19 19 19 19 19 19 19 19 19 19 18 18 18 18 17 17 17 17 17 16 16 16 16 16
Wind_Speed
3 2 4 9 9 8 6 5 5 5 5 6 6 9 13 14 13 13 12 12 12 12 11 11 12 12 11 9 9 8 7 6 5 3 3 2 1 1 1 2 4 5 4 4
5 5 11 8 7 6 5 5 3 1 4 6 5 7 12 13 16 16 15 14 14 11 10 11 11 11 11 10 9 8 8 7 6 4 3 3 2 2 2 1 2 4 4 4
7 10 8 5 7 5 4 6 6 5 2 4 6 0 6 7 8 10 12 12 14 16 16 14 13 12 12 11 11 10 8 7 7 6 3 2 2 1 1 1 1 2 3 3
7 9 7 6 7 6 5 5 8 7 6 1 4 2 5 6 6 10 12 12 14 14 14 14 14 13 13 13 11 9 9 8 7 6 5 5 4 3 3 2 2 2 2 3
7 5 5 6 8 6 6 6 6 6 5 2 2 3 6 4 7 10 12 14 14 15 16 16 16 15 14 13 11 9 9 7 7 7 7 6 4 3 2 2 2 1 1 1
9 6 5 7 6 5 6 6 7 6 5 1 4 4 5 6 11 10 10 12 13 14 15 15 14 12 11 11 11 10 9 8 7 7 7 7 6 5 4 3 3 2 1 0
8 9 6 3 2 3 5 7 4 4 4 4 4 3 8 9 10 12 11 11 13 15 15 15 14 14 13 13 12 11 10 9 8 8 7 7 7 6 6 5 4 4 2 1
5 8 7 4 7 6 4 10 8 5 5 4 2 4 7 7 8 8 8 10 10 12 13 15 15 15 15 15 14 13 12 10 9 9 8 7 6 5 4 5 5 4 3 3
7 8 8 6 5 8 4 4 10 8 4 1 3 4 6 2 2 4 6 7 10 11 12 13 13 14 14 15 15 14 13 10 10 10 8 7 7 6 6 5 4 4 3 3
9 5 7 5 2 2 8 8 6 6 6 3 3 3 5 5 4 4 6 8 8 9 9 9 9 11 13 13 13 13 13 12 10 10 9 8 7 7 6 5 5 5 4 3
7 5 7 3 4 6 1 4 5 5 7 7 3 6 7 10 9 10 9 9 9 10 11 10 10 10 10 11 11 12 11 10 9 9 8 7 7 7 6 6 6 5 4 4
5 6 4 7 6 4 6 6 7 6 4 6 6 7 7 10 9 10 10 8 8 8 9 9 9 9 10 10 11 11 11 11 10 9 8 7 7 7 7 6 6 5 5 4
5 7 1 6 7 5 0 2 5 6 5 5 5 6 3 6 6 7 8 8 7 7 8 7 8 9 10 10 10 10 11 11 10 9 9 8 8 8 7 7 6 5 5 4
6 5 7 9 7 4 3 3 1 6 4 4 6 6 3 6 7 6 7 7 7 7 7 8 7 7 8 9 9 9 10 10 10 9 9 9 9 9 8 7 7 6 6 5
6 4 4 5 5 2 3 4 2 2 7 8 8 8 10 10 9 8 7 7 8 7 8 10 9 7 7 8 8 8 9 9 10 10 10 9 8 8 8 7 7 7 6 6
4 4 2 2 2 3 4 5 2 1 2 4 5 6 7 6 6 7 7 9 9 7 8 9 9 9 9 10 10 9 9 9 9 10 10 9 8 8 8 8 7 7 6 5
2 5 4 2 3 4 4 4 3 2 2 5 5 6 6 8 9 9 9 9 9 7 6 7 8 9 8 8 9 9 9 9 9 9 9 9 9 9 8 9 8 8 7 6
5 4 4 2 3 4 8 4 3 4 1 2 5 6 8 10 8 7 8 10 9 7 6 5 6 7 7 6 6 7 8 8 9 9 9 8 9 8 8 8 8 7 6 7
6 7 4 4 3 4 6 3 1 4 2 2 6 7 7 8 8 4 2 6 8 7 6 5 5 5 6 6 7 8 8 8 8 9 9 9 9 9 9 9 8 7 6 6
4 6 6 4 4 5 6 6 2 6 1 4 4 7 6 7 5 3 2 4 4 4 4 3 3 3 4 5 7 8 8 8 8 9 9 9 9 9 9 9 8 6 6 6
3 4 4 4 4 5 7 7 2 4 5 3 3 5 5 5 6 6 5 4 4 4 4 4 4 3 3 4 6 6 7 8 9 8 8 8 9 9 9 7 6 6 6 6
5 4 4 4 4 6 6 3 3 5 3 2 4 4 6 6 5 6 6 5 5 4 4 4 4 2 2 3 6 5 6 7 7 7 8 8 8 8 7 7 6 6 7 7
4 6 6 6 6 5 1 3 3 5 5 3 3 3 6 6 5 6 5 5 4 3 3 3 4 3 2 2 4 4 4 4 6 7 7 7 7 6 7 7 7 6 7 6
3 1 3 2 2 1 2 3 3 4 4 3 3 4 5 6 6 6 4 3 3 3 3 3 4 3 2 1 1 2 2 3 6 7 7 6 7 6 5 5 6 6 7 7
3 1 2 1 1 2 3 2 2 4 4 4 3 3 4 6 5 5 4 3 2 2 2 3 3 2 0 1 1 1 1 3 4 6 5 5 6 6 5 5 5 7 7 8
3 3 4 4 5 3 2 1 3 5 4 4 4 4 3 4 4 4 3 3 3 2 2 3 2 1 0 0 1 1 1 2 4 5 5 4 5 5 4 5 3 3 4 7
Wind_Direction
319 68 240 225 207 207 201 201 212 225 180 154 169 171 179 178 178 178 179 181 180 180 176 168 166 164 160 161 161 160 159 167 152 142 145 147 173 186 178 190 187 173 170 164
356 268 242 230 233 228 213 187 186 197 150 138 160 183 184 182 186 185 184 185 185 177 171 171 169 169 169 170 169 165 166 171 169 170 170 170 168 185 195 196 184 186 176 171
221 247 255 240 244 235 235 182 179 178 92 82 108 166 199 203 194 192 192 188 186 183 179 178 176 176 172 175 177 176 173 171 174 170 151 128 85 55 60 163 197 202 177 181
245 252 259 248 239 212 235 206 168 151 121 197 126 190 256 213 208 199 199 194 191 190 183 180 179 179 180 183 179 175 173 172 172 164 160 160 167 184 207 200 198 206 181 175
252 252 246 244 243 201 197 160 136 133 130 102 48 140 265 219 207 212 206 202 196 190 185 185 185 184 184 180 176 175 171 172 172 169 170 168 178 191 188 167 163 182 192 178
258 265 232 229 245 192 149 79 49 60 86 144 220 171 243 216 208 210 206 201 196 191 188 189 188 180 179 177 175 173 172 177 176 175 177 178 183 181 170 176 174 174 174 181
296 296 277 231 261 312 105 96 46 8 19 242 227 178 236 227 211 204 198 201 197 190 186 187 185 183 182 179 178 176 175 181 183 181 185 187 185 180 181 184 180 170 169 191
227 277 268 224 185 192 177 136 155 190 206 257 288 225 252 232 207 193 183 185 179 182 186 190 190 187 185 182 179 177 180 185 186 185 189 189 183 178 182 183 173 175 183 192
194 246 274 248 204 157 162 167 167 148 164 151 268 280 308 287 193 171 164 169 177 181 182 190 191 188 184 182 182 180 181 184 186 186 181 183 182 178 179 178 169 169 176 176
175 233 279 278 296 229 168 157 105 125 153 202 265 256 226 235 217 193 178 176 184 178 174 183 190 188 185 184 181 178 180 185 186 185 183 186 185 183 177 168 169 171 175 159
163 184 287 331 201 223 181 127 121 129 152 154 199 260 224 200 192 189 190 182 174 176 175 179 186 178 176 172 172 175 178 178 180 184 186 183 181 179 171 168 166 164 163 150
173 149 238 260 259 210 175 175 148 153 200 164 167 249 237 194 195 186 185 180 163 167 170 170 168 162 163 166 170 175 179 180 183 183 180 178 173 165 163 163 162 156 151 147
142 124 135 326 329 349 78 162 144 133 130 153 166 248 248 184 188 181 174 170 161 157 152 150 154 164 171 170 169 174 182 185 182 175 172 171 170 169 169 165 159 152 147 143
126 118 162 195 217 244 291 300 95 121 148 185 200 208 211 181 172 175 159 154 151 148 148 147 155 167 172 169 170 174 183 183 178 173 173 177 178 175 172 165 155 154 152 148
107 131 167 206 223 222 267 279 259 172 184 181 202 192 203 197 178 169 157 154 147 143 153 157 159 167 175 174 175 178 183 182 177 173 178 184 178 171 167 162 159 158 156 157
83 123 94 337 343 6 319 295 272 220 163 177 170 204 210 179 135 135 147 146 145 148 158 161 161 168 181 183 182 182 185 183 175 175 178 176 170 169 169 165 161 159 159 157
75 110 104 267 327 24 304 267 210 206 184 165 182 204 166 142 147 157 156 144 143 159 160 161 170 175 183 185 184 184 183 176 178 180 178 173 170 171 171 169 164 167 168 163
130 108 122 131 59 229 242 256 151 125 78 139 154 153 146 149 150 148 148 144 147 155 152 159 173 176 182 184 181 177 171 172 177 178 177 174 171 172 171 169 172 173 170 171
146 135 118 123 174 267 292 293 151 121 358 3 127 132 135 133 102 67 124 142 155 156 153 161 172 174 171 167 170 164 168 172 176 181 181 178 174 172 175 178 181 180 174 175
86 113 123 133 157 218 254 285 245 106 6 326 121 138 144 121 122 207 183 135 131 129 135 134 132 133 153 172 162 161 169 172 184 189 185 179 175 176 181 185 183 179 175 178
68 73 134 161 191 248 266 291 25 122 216 261 134 131 122 131 169 184 149 124 121 120 119 118 112 129 166 164 153 161 174 188 193 185 177 178 178 182 183 181 178 175 176 175
159 146 169 154 178 247 292 18 118 184 191 98 90 103 106 116 122 119 119 121 111 103 100 106 106 96 106 141 150 165 192 199 182 172 174 179 179 181 179 176 176 177 178 181
172 181 172 177 203 233 275 136 156 138 118 103 94 95 110 109 109 108 109 117 116 112 99 100 111 96 70 102 145 172 199 179 167 169 174 175 176 178 174 175 178 181 181 186
313 84 115 118 236 189 91 88 76 93 107 111 111 103 103 113 110 102 105 102 92 93 93 88 89 80 37 19 76 173 188 172 165 170 174 174 176 179 180 183 183 187 191 194
275 40 91 110 248 35 15 38 88 69 72 74 71 94 112 112 114 124 125 126 126 117 112 106 116 130 164 357 14 354 160 154 167 170 172 176 181 184 187 191 194 197 202 201
270 186 166 206 224 169 233 281 92 88 77 66 61 55 77 121 138 129 130 141 137 130 123 113 110 113 336 348 351 336 174 154 164 168 176 179 181 182 183 185 195 217 214 220
Height
1491 1498 1505 1501 1499 1500 1503 1509 1512 1507 1500 1507 1513 1515 1514 1515 1519 1520 1522 1524 1525 1527 1529 1531 1533 1535 1536 1538 1539 1540 1541 1543 1543 1544 1545 1545 1546 1547 1547 1548 1548 1549 1549 1549
1498 1501 1491 1490 1491 1495 1499 1507 1510 1505 1499 1505 1513 1514 1511 1513 1514 1516 1518 1520 1523 1525 1528 1530 1532 1533 1534 1536 1537 1539 1540 1541 1542 1543 1544 1545 1546 1546 1547 1547 1547 1548 1548 1548
1501 1492 1484 1488 1492 1496 1498 1504 1506 1508 1504 1505 1514 1522 1517 1513 1514 1516 1517 1518 1520 1522 1524 1527 1529 1531 1533 1534 1536 1537 1538 1540 1541 1542 1543 1544 1545 1545 1546 1546 1546 1546 1547 1547
1493 1485 1485 1489 1491 1492 1502 1491 1494 1500 1514 1525 1520 1540 1524 1516 1514 1514 1515 1516 1517 1520 1521 1524 1526 1528 1530 1532 1534 1536 1537 1538 1540 1541 1542 1542 1543 1544 1544 1545 1545 1546 1546 1546
1491 1483 1485 1489 1486 1484 1491 1485 1491 1499 1513 1525 1524 1536 1529 1516 1517 1512 1511 1512 1514 1516 1518 1520 1523 1525 1528 1530 1532 1534 1536 1537 1538 1539 1540 1541 1542 1543 1544 1544 1544 1545 1545 1545
1484 1479 1480 1480 1477 1478 1482 1489 1498 1510 1522 1539 1528 1534 1533 1519 1510 1506 1506 1508 1511 1513 1515 1518 1521 1524 1526 1528 1531 1532 1534 1535 1537 1538 1539 1540 1541 1542 1542 1543 1543 1544 1544 1544
1490 1481 1476 1476 1481 1481 1484 1508 1533 1538 1547 1543 1524 1528 1525 1504 1499 1499 1501 1504 1506 1509 1512 1515 1518 1520 1523 1525 1528 1530 1532 1533 1535 1536 1537 1538 1539 1540 1541 1541 1542 1542 1542 1542
1502 1500 1478 1473 1478 1486 1488 1503 1532 1546 1550 1541 1526 1528 1511 1495 1494 1495 1497 1500 1502 1505 1508 1512 1514 1517 1519 1522 1525 1528 1529 1531 1532 1533 1535 1536 1537 1538 1539 1540 1541 1541 1541 1541
1499 1497 1473 1469 1468 1475 1487 1497 1500 1523 1532 1540 1534 1520 1504 1493 1492 1494 1497 1499 1501 1503 1505 1509 1511 1515 1517 1520 1522 1524 1527 1529 1530 1531 1532 1534 1536 1537 1538 1539 1540 1540 1540 1540
1483 1492 1478 1469 1467 1469 1475 1485 1506 1522 1540 1546 1536 1527 1518 1503 1497 1494 1496 1497 1499 1501 1503 1506 1509 1512 1515 1517 1520 1523 1525 1527 1528 1530 1531 1532 1534 1535 1537 1538 1538 1538 1539 1539
1475 1490 1485 1477 1477 1480 1480 1486 1499 1515 1521 1538 1544 1531 1497 1495 1492 1491 1492 1493 1495 1498 1500 1504 1506 1509 1512 1515 1518 1521 1523 1525 1527 1528 1530 1531 1532 1534 1535 1536 1536 1537 1537 1537
1471 1487 1496 1484 1471 1467 1473 1481 1495 1513 1520 1523 1531 1523 1485 1486 1486 1486 1488 1490 1491 1495 1498 1501 1504 1507 1509 1512 1515 1518 1521 1523 1525 1527 1528 1530 1531 1532 1533 1534 1535 1535 1536 1536
1469 1488 1503 1500 1490 1477 1475 1477 1485 1497 1510 1522 1527 1515 1483 1484 1484 1485 1487 1489 1491 1494 1497 1500 1503 1505 1508 1510 1513 1516 1519 1521 1523 1525 1526 1528 1529 1530 1531 1532 1533 1533 1534 1534
1463 1484 1496 1504 1499 1486 1483 1479 1479 1493 1510 1515 1510 1502 1490 1486 1484 1485 1486 1488 1490 1493 1495 1498 1502 1505 1507 1509 1511 1514 1516 1519 1521 1522 1524 1526 1527 1528 1529 1530 1531 1532 1532 1532
1464 1481 1481 1481 1477 1475 1477 1477 1478 1485 1492 1501 1497 1494 1487 1483 1482 1483 1485 1488 1491 1493 1496 1498 1500 1503 1505 1507 1509 1512 1514 1516 1518 1519 1521 1523 1524 1526 1527 1528 1529 1529 1530 1530
1467 1478 1480 1481 1474 1474 1476 1474 1475 1478 1480 1485 1486 1488 1479 1480 1481 1483 1484 1486 1489 1492 1494 1496 1498 1501 1503 1505 1507 1509 1511 1513 1515 1516 1518 1521 1522 1523 1524 1525 1526 1527 1528 1528
1473 1479 1489 1493 1481 1479 1488 1477 1474 1477 1475 1478 1485 1483 1478 1481 1481 1482 1483 1485 1488 1491 1493 1495 1497 1499 1502 1503 1505 1507 1508 1510 1512 1514 1515 1517 1519 1520 1521 1522 1523 1524 1525 1525
1473 1482 1492 1495 1491 1501 1487 1469 1467 1472 1473 1471 1473 1475 1475 1477 1479 1482 1483 1484 1487 1489 1491 1493 1496 1498 1501 1502 1504 1506 1507 1508 1509 1511 1513 1515 1516 1517 1518 1520 1520 1521 1522 1522
1466 1478 1491 1501 1501 1495 1479 1469 1468 1474 1479 1473 1472 1474 1476 1477 1479 1483 1484 1484 1486 1488 1490 1492 1494 1496 1498 1500 1502 1504 1505 1506 1507 1508 1510 1511 1513 1514 1515 1516 1517 1518 1518 1519
1466 1472 1487 1497 1499 1502 1484 1467 1464 1469 1484 1474 1472 1473 1475 1476 1486 1487 1484 1485 1486 1488 1489 1491 1493 1495 1496 1498 1499 1501 1501 1503 1504 1505 1506 1508 1509 1511 1512 1513 1513 1515 1515 1516
1477 1481 1488 1494 1496 1490 1473 1466 1464 1484 1486 1474 1472 1472 1474 1475 1480 1482 1483 1484 1486 1487 1489 1490 1491 1492 1493 1495 1496 1497 1498 1499 1500 1502 1503 1505 1506 1507 1508 1509 1510 1511 1512 1513
1480 1486 1490 1493 1498 1493 1470 1467 1473 1477 1473 1473 1472 1473 1474 1475 1478 1479 1480 1482 1484 1486 1487 1488 1489 1490 1491 1492 1493 1493 1494 1496 1497 1498 1499 1500 1502 1504 1505 1506 1507 1508 1509 1510
1474 1475 1478 1482 1484 1474 1469 1469 1470 1471 1472 1473 1474 1474 1474 1475 1477 1478 1479 1480 1482 1484 1485 1486 1487 1488 1489 1490 1490 1491 1492 1493 1494 1495 1495 1497 1498 1499 1501 1502 1503 1504 1505 1505
1469 1467 1472 1476 1474 1471 1470 1470 1469 1470 1471 1473 1473 1474 1475 1475 1476 1477 1479 1480 1481 1483 1484 1485 1486 1486 1486 1487 1488 1489 1490 1490 1490 1491 1491 1493 1494 1495 1497 1498 1499 1500 1501 1501
1469 1468 1472 1475 1472 1471 1471 1471 1471 1472 1473 1473 1473 1474 1474 1475 1476 1477 1478 1479 1481 1482 1483 1484 1484 1484 1485 1485 1486 1486 1487 1487 1486 1487 1488 1489 1490 1491 1493 1494 1495 1496 1497 1497
1467 1469 1472 1475 1471 1471 1473 1472 1472 1472 1472 1472 1472 1473 1474 1475 1476 1477 1477 1478 1479 1480 1481 1481 1482 1482 1482 1483 1483 1484 1484 1484 1484 1484 1485 1486 1487 1488 1489 1490 1491 1492 1494 1494